LANDSAT 8

Last updated on Wed Mar 04 2026 00:02:32 GMT+0000 (Coordinated Universal Time)

1 39084U 13008A 26062.61753042 .00000496 00000+0 12013-3 0 9998 2 39084 98.1930 134.4425 0001237 90.7529 269.3812 14.57124406682522
UTC large
Height (km)
Speed (km/s)
/
Latitude / Longitude
Inclination (degrees)
Orbital Period (minutes)
Azimuth
Elevation
Range (km)
Doppler Factor

Next 0 passes for location: London (51.5072 / 0.1276)

Sorry there are no passes over London.